Fort Atkinson, Wisconsin, United States (53538)
Lat: 42.93N, Lon: 88.84W
Wx Zone: WIZ064
Local Info
Past Weather Observations for Sunday, July 27, 2014

NOTE: This archive is for the closest National Weather Service station to Fort Atkinson. Information may differ from the station used for current weather conditions.

Click here for Long-term Archive

Time Weather Temperature Dewpoint Humidity Pressure Winds Precip Visibility
23:55
Clear
59°F / 15°C 54°F / 12°C 82% 29.98 in
(1015 mb)
NNW 8.1 mph
(NNW 13 kph)
- 10SM
23:35
Clear
59°F / 15°C 55°F / 13°C 88% 29.98 in
(1015 mb)
NNW 9.2 mph
(NNW 15 kph)
- 10SM
23:15
Clear
59°F / 15°C 55°F / 13°C 88% 29.98 in
(1015 mb)
NNW 9.2 mph
(NNW 15 kph)
- 10SM
22:55
Clear
61°F / 16°C 55°F / 13°C 83% 29.98 in
(1015 mb)
NNW 10.4 mph
(NNW 17 kph)
- 10SM
22:35
Partly Cloudy
61°F / 16°C 57°F / 14°C 88% 29.98 in
(1015 mb)
NNW 9.2 mph
(NNW 15 kph)
- 10SM
22:15
Mostly Cloudy
61°F / 16°C 57°F / 14°C 88% 29.98 in
(1015 mb)
N 9.2 mph
(N 15 kph)
- 10SM
21:55
Overcast
63°F / 17°C 57°F / 14°C 83% 29.98 in
(1015 mb)
NNW 10.4 mph
(NNW 17 kph)
- 10SM
21:35
Overcast
63°F / 17°C 59°F / 15°C 88% 29.95 in
(1014 mb)
N 11.5 mph
(N 19 kph)
- 10SM
21:15
Overcast
64°F / 18°C 59°F / 15°C 83% 29.95 in
(1014 mb)
N 5.8 mph
(N 9 kph)
- 10SM
20:55
Mostly Cloudy
64°F / 18°C 59°F / 15°C 83% 29.95 in
(1014 mb)
N 6.9 mph
(N 11 kph)
- 10SM
20:35
Overcast
64°F / 18°C 63°F / 17°C 94% 29.92 in
(1013 mb)
N 5.8 mph
(N 9 kph)
- 10SM
20:15
Mostly Cloudy
64°F / 18°C 63°F / 17°C 94% 29.92 in
(1013 mb)
N 8.1 mph
(N 13 kph)
- 10SM
19:55
Overcast
Drizzle
64°F / 18°C 63°F / 17°C 94% 29.92 in
(1013 mb)
N 6.9 mph
(N 11 kph)
0.01 in
(0.25 mm)
7SM
19:35
Overcast
Light Rain
66°F / 19°C 61°F / 16°C 83% 29.89 in
(1012 mb)
N 12.7 mph
(N 20 kph)
- 10SM
19:15
Mostly Cloudy
68°F / 20°C 59°F / 15°C 73% 29.89 in
(1012 mb)
N 9.2 mph
(N 15 kph)
- 10SM
18:55
Partly Cloudy
68°F / 20°C 59°F / 15°C 73% 29.86 in
(1011 mb)
N 12.7 mph
(N 20 kph)
- 10SM
18:35
Mostly Cloudy
68°F / 20°C 59°F / 15°C 73% 29.86 in
(1011 mb)
N 13.8 mph
(N 22 kph)
- 10SM
18:15
Overcast
70°F / 21°C 59°F / 15°C 69% 29.83 in
(1010 mb)
N 12.7 mph
(N 20 kph)
- 10SM
17:55
Mostly Cloudy
72°F / 22°C 61°F / 16°C 69% 29.83 in
(1010 mb)
NNW 12.7 mph
(NNW 20 kph)
- 10SM
17:35
Overcast
72°F / 22°C 61°F / 16°C 69% 29.8 in
(1009 mb)
NNW 15 mph
(NNW 24 kph)
- 10SM
17:15
Overcast
72°F / 22°C 59°F / 15°C 65% 29.8 in
(1009 mb)
NNW 12.7 mph
(NNW 20 kph)
- 10SM
16:55
Partly Cloudy
73°F / 23°C 59°F / 15°C 61% 29.8 in
(1009 mb)
NW 16.1 mph
(NW 26 kph)
- 10SM
16:35
Clear
73°F / 23°C 59°F / 15°C 61% 29.77 in
(1008 mb)
NW 15 mph
(NW 24 kph)
- 10SM
16:15
Partly Cloudy
73°F / 23°C 59°F / 15°C 61% 29.77 in
(1008 mb)
NW 17.3 mph
(NW 28 kph)
- 10SM
15:55
Partly Cloudy
73°F / 23°C 59°F / 15°C 61% 29.77 in
(1008 mb)
NW 12.7 mph
(NW 20 kph)
- 10SM
15:35
Partly Cloudy
75°F / 24°C 59°F / 15°C 57% 29.77 in
(1008 mb)
NW 20.7 mph
(NW 33 kph)
- 10SM
15:15
Overcast
73°F / 23°C 59°F / 15°C 61% 29.77 in
(1008 mb)
NW 17.3 mph
(NW 28 kph)
- 10SM
14:55
Partly Cloudy
75°F / 24°C 59°F / 15°C 57% 29.77 in
(1008 mb)
WNW 16.1 mph
(WNW 26 kph)
- 10SM
14:35
Clear
75°F / 24°C 57°F / 14°C 54% 29.77 in
(1008 mb)
NW 17.3 mph
(NW 28 kph)
- 10SM
14:15
Mostly Cloudy
75°F / 24°C 57°F / 14°C 54% 29.77 in
(1008 mb)
NW 13.8 mph
(NW 22 kph)
- 10SM
13:55
Mostly Cloudy
73°F / 23°C 57°F / 14°C 57% 29.77 in
(1008 mb)
NW 17.3 mph
(NW 28 kph)
- 10SM
13:35
Overcast
70°F / 21°C 59°F / 15°C 69% 29.77 in
(1008 mb)
NW 11.5 mph
(NW 19 kph)
- 10SM
13:15
Overcast
68°F / 20°C 59°F / 15°C 73% 29.77 in
(1008 mb)
NNW 13.8 mph
(NNW 22 kph)
- 10SM
12:55
Mostly Cloudy
77°F / 25°C 57°F / 14°C 51% 29.74 in
(1007 mb)
NW 20.7 mph
(NW 33 kph)
- 10SM
12:35
Mostly Cloudy
77°F / 25°C 57°F / 14°C 51% 29.74 in
(1007 mb)
NW 18.4 mph
(NW 30 kph)
- 10SM
12:15
Mostly Cloudy
79°F / 26°C 57°F / 14°C 48% 29.74 in
(1007 mb)
WNW 20.7 mph
(WNW 33 kph)
- 10SM
11:55
Partly Cloudy
77°F / 25°C 59°F / 15°C 54% 29.71 in
(1006 mb)
SSW 17.3 mph
(SSW 28 kph)
- 10SM
11:35
Partly Cloudy
75°F / 24°C 59°F / 15°C 57% 29.71 in
(1006 mb)
SSW 13.8 mph
(SSW 22 kph)
- 10SM
11:15
Partly Cloudy
79°F / 26°C 59°F / 15°C 51% 29.71 in
(1006 mb)
SSW 10.4 mph
(SSW 17 kph)
- 10SM
10:15
Clear
79°F / 26°C 57°F / 14°C 48% 29.74 in
(1007 mb)
W 16.1 mph
(W 26 kph)
- 10SM
09:55
Clear
79°F / 26°C 59°F / 15°C 51% 29.74 in
(1007 mb)
W 15 mph
(W 24 kph)
- 10SM
09:35
Clear
79°F / 26°C 59°F / 15°C 51% 29.74 in
(1007 mb)
W 10.4 mph
(W 17 kph)
- 10SM
09:15
Clear
77°F / 25°C 61°F / 16°C 57% 29.74 in
(1007 mb)
WNW 11.5 mph
(WNW 19 kph)
- 10SM
08:55
Clear
77°F / 25°C 63°F / 17°C 61% 29.74 in
(1007 mb)
W 9.2 mph
(W 15 kph)
- 10SM
08:35
Clear
77°F / 25°C 63°F / 17°C 61% 29.74 in
(1007 mb)
WNW 11.5 mph
(WNW 19 kph)
- 10SM
08:15
Clear
75°F / 24°C 64°F / 18°C 69% 29.74 in
(1007 mb)
W 8.1 mph
(W 13 kph)
- 10SM
07:55
Clear
75°F / 24°C 64°F / 18°C 69% 29.74 in
(1007 mb)
WNW 8.1 mph
(WNW 13 kph)
- 10SM
07:35
Partly Cloudy
73°F / 23°C 68°F / 20°C 83% 29.74 in
(1007 mb)
WNW 10.4 mph
(WNW 17 kph)
- 10SM
07:15
Mostly Cloudy
72°F / 22°C 68°F / 20°C 88% 29.74 in
(1007 mb)
W 8.1 mph
(W 13 kph)
- 10SM
06:55
Partly Cloudy
72°F / 22°C 68°F / 20°C 88% 29.74 in
(1007 mb)
SSW 5.8 mph
(SSW 9 kph)
- 10SM
06:35
Clear
70°F / 21°C 68°F / 20°C 94% 29.74 in
(1007 mb)
SSW 4.6 mph
(SSW 7 kph)
- 10SM
06:15
Clear
68°F / 20°C 68°F / 20°C 100% 29.74 in
(1007 mb)
Calm - 7SM
05:55
Clear
66°F / 19°C 66°F / 19°C 100% 29.74 in
(1007 mb)
SW 4.6 mph
(SW 7 kph)
- 7SM
05:35
Partly Cloudy
Fog And Mist
66°F / 19°C 66°F / 19°C 100% 29.74 in
(1007 mb)
SSE 4.6 mph
(SSE 7 kph)
- 4SM
05:15
Clear
Fog And Mist
66°F / 19°C 66°F / 19°C 100% 29.77 in
(1008 mb)
SW 3.5 mph
(SW 6 kph)
- 2 1/2SM
04:55
Clear
Fog And Mist
64°F / 18°C 64°F / 18°C 100% 29.74 in
(1007 mb)
SW 4.6 mph
(SW 7 kph)
- 3SM
04:35
Clear
Fog And Mist
64°F / 18°C 64°F / 18°C 100% 29.74 in
(1007 mb)
SSE 3.5 mph
(SSE 6 kph)
- 3SM
04:15
Clear
Fog And Mist
64°F / 18°C 64°F / 18°C 100% 29.74 in
(1007 mb)
SW 5.8 mph
(SW 9 kph)
- 2 1/2SM
03:55
Clear
Fog And Mist
63°F / 17°C 63°F / 17°C 100% 29.74 in
(1007 mb)
SW 3.5 mph
(SW 6 kph)
- 5SM
03:35
Clear
Fog And Mist
63°F / 17°C 63°F / 17°C 100% 29.74 in
(1007 mb)
SSE 3.5 mph
(SSE 6 kph)
- 3SM
03:15
Partly Cloudy
Fog And Mist
63°F / 17°C 63°F / 17°C 100% 29.77 in
(1008 mb)
Calm - 5SM
02:55
Partly Cloudy
Fog And Mist
63°F / 17°C 63°F / 17°C 100% 29.74 in
(1007 mb)
SW 3.5 mph
(SW 6 kph)
- 1 1/2SM
02:35
Clear
Fog And Mist
63°F / 17°C 63°F / 17°C 100% 29.77 in
(1008 mb)
Calm - 3SM
02:15
Clear
Fog And Mist
63°F / 17°C 63°F / 17°C 100% 29.77 in
(1008 mb)
Calm - 5SM
01:55
Partly Cloudy
Fog And Mist
63°F / 17°C 63°F / 17°C 100% 29.77 in
(1008 mb)
Calm - 4SM
01:35
Partly Cloudy
Fog And Mist
64°F / 18°C 63°F / 17°C 94% 29.77 in
(1008 mb)
Calm - 5SM
01:15
Partly Cloudy
Fog And Mist
64°F / 18°C 64°F / 18°C 100% 29.77 in
(1008 mb)
Calm - 5SM
00:55
Partly Cloudy
64°F / 18°C 64°F / 18°C 100% 29.8 in
(1009 mb)
Calm - 7SM
00:35
Clear
64°F / 18°C 63°F / 17°C 94% 29.8 in
(1009 mb)
Calm - 10SM
00:15
Obscured
Fog And Mist
63°F / 17°C 63°F / 17°C 100% 29.8 in
(1009 mb)
Calm - 1 1/2SM
Time Weather Temperature Dewpoint Humidity Pressure Winds Precip Visibility


Weather for websites

WeatherForYou.com, LLC is not responsible for any damages or problems caused by this service. Current weather conditions are obtained from the closest station including government and personal stations which may have varying degrees of accuracy. Weather forecasts are derived from the NOAA NDFD. Like all things, this site belongs to Jesus Christ... He just trusts me to maintain it. If you have any questions or comments email webmaster@weatherforyou.com

Copyright © 2014, WeatherForYou.com LLC. All rights reserved.